Погода в Пердике

Греция     37°41′32″N   23°27′11″E
темп.,
°C
ветер,
м/с
пор.,
м/с
влажн.,
%
обл.,
%
осадки,
мм/ч
давл.,
гПа
погр.,
м
26 октября, вт
вт2600:00+16с11115987 0.0 10241371
03:00+16с13136499 0.0 10231278
06:00+16с13136632 0.0 10231319
09:00+15с13136828 0.0 10231310
12:00+16с12126311 0.0 10231397
15:00+17с1211625 0.0 10211347
18:00+16с11106310 0.0 10211207
21:00+16с98639 0.0 10221158
27 октября, ср
ср2700:00+16с89635 0.0 10221079
03:00+16с89651 0.0 10211066
06:00+16с89673 0.0 10211207
09:00+16с896527 0.0 10221281
12:00+17с89614 0.0 10231311
15:00+18с88550 0.0 10221461
18:00+18с985981 0.0 10211292
21:00+17ссв886123 0.0 10231012
28 октября, чт
чт2800:00+17с88621 0.0 10231070
03:00+16с99642 0.0 10231053
06:00+17ссз10116512 0.0 10221261
09:00+17с1112665 0.0 10231256
12:00+17с1111625 0.0 10241339
15:00+18с1212600 0.0 10221306
18:00+18с11116325 0.0 10221144
21:00+17с9963100 0.0 10231071
29 октября, пт
пт2900:00+17с9964100 0.0 10231134
03:00+17с9106458 0.0 10221172
06:00+17с911641 0.0 10221168
09:00+17с99640 0.0 10221048
12:00+18с89580 0.0 10221204
15:00+19с89560 0.0 10211222
18:00+18с88590 0.0 10211044
21:00+17с77635 0.0 1022783
30 октября, сб
сб3000:00+17с66640 0.0 1023735
03:00+16ссз67650 0.0 1022695
06:00+17ссз89651 0.0 1022830
09:00+17ссз810645 0.0 10231021
12:00+18с89610 0.0 10231169
15:00+19ссз910560 0.0 10221317
18:00+19с99580 0.0 10221138
21:00+18с99620 0.0 1023867